SCP
0 0 0 0 0 -0 -0 -0 0 -0 -0 0 0 -0 0 0 0 0 0 0 0 0 0 0 0 0 0 0 0 0 0 0 0 0 0 0 0 0 0 0 0 0 0 0 0 0 0 0 0 0 0 0 0 0
0 0 0 0 0 0 -0 0 -0 -0 -0 0 -0 -0 -0 0 0 0 0 0 0 0 0 0 0 0 0 0 0 0 0 0 0 0 0 0 0 0 0 0 0 0 0 0 0 0 0 0 0 0 0 0 0 0
-0 0 0 0 0 -0 -0 0 0 0 -0 -0 -0 -0 -0 0 0 0 0 0 0 0 0 0 0 0 0 0 0 0 0 0 0 0 0 0 0 0 0 0 0 0 0 0 0 0 0 0 0 0 0 0 0 0
-0 -0 0 0 0 -0 -0 -0 0 0 -0 -0 0 -0 0 0 -0 -0 -0 0 0 0 0 0 0 0 0 0 0 0 0 0 0 0 0 0 0 0 0 0 0 0 0 0 0 0 0 0 0 0 0 0 0 0
-0 -0 -0 0 0 0 -0 -0 -0 0 -0 -0 -0 0 0 -0 -0 -0 0 0 0 0 0 0 0 0 0 0 0 0 0 0 0 0 0 0 0 0 0 0 0 0 0 0 0 0 0 0 0 0 0 0 0 0
0 -0 -0 -0 -0 0 -0 -0 -0 0 0 -0 -0 0 0 -0 -0 0 0 0 0 0 -0 -0 0 0 0 0 0 0 0 0 0 0 0 0 0 0 0 0 0 0 0 0 0 0 0 0 0 0 0 0 0 0
-0 0 -0 -0 -0 -0 -0 -0 -0 -0 0 0 -0 0 0 -0 0 0 0 0 0 0 0 0 0 0 0 0 0 0 0 0 0 0 0 0 0 0 0 0 0 0 0 0 0 0 0 0 0 0 0 0 0 0
-0 -0 -0 -0 -0 -0 -0 -0 -0 0 0 0 0 -0 -0 0 0 0 0 -0 -0 0 0 -0 0 0 0 0 0 0 0 0 0 0 0 0 0 0 0 0 0 0 0 0 0 0 0 0 0 0 0 0 0 0
-0 -0 -0 -0 -0 -0 -0 0 -0 -0 -0 0 0 0 0 0 -0 -0 0 0 0 -0 0 0 0 0 0 0 0 0 0 0 0 0 0 0 0 0 0 0 0 0 0 0 0 0 0 0 0 0 0 0 0 0
-0 -0 -0 -0 -0 -0 -0 0 0 0 -0 0 -0 0 0 0 0 0 0 0 0 0 0 0 0 0 0 0 0 0 0 0 0 0 0 0 0 0 0 0 0 0 0 0 0 0 0 0 0 0 0 0 0 0
-0 -0 -0 -0 -0 -0 -0 -0 0 -0 -0 0 -0 -0 0 0 0 0 0 0 0 0 0 0 0 0 0 0 0 0 0 0 0 0 0 0 0 0 0 0 0 0 0 0 0 0 0 0 0 0 0 0 0 0
0 -0 -0 -0 -0 -0 -0 -0 0 0 0 0 0 -0 -0 -0 -0 -0 0 0 0 0 0 0 0 0 0 0 0 0 0 0 0 0 0 0 0 0 0 0 0 0 0 0 0 0 0 0 0 0 0 0 0 0
0 0 -0 -0 -0 0 0 0 0 0 0 0 0 0 -0 -0 -0 -0 -0 -0 -0 0 0 0 0 0 0 0 0 0 0 0 0 0 0 0 0 0 0 0 0 0 0 0 0 0 0 0 0 0 0 -0 -0 -0
0 0 0 0 -0 0 0 0 0 0 0 0 0 0 0 -0 -0 -0 -0 -0 0 0 0 0 0 0 0 0 0 0 0 0 0 0 0 0 0 0 0 0 0 0 0 0 0 0 0 0 0 -0 -0 -0 -0 -0
0 0 0 0 0 0 0 0 0 0 0 0 0 0 0 0 0 0 0 0 0 0 0 0 0 0 0 0 0 0 0 0 0 0 0 0 0 0 0 0 0 0 0 0 0 0 -0 -0 -0 -0 -0 0 -0 -0
0 0 0 0 0 0 0 0 0 0 0 0 0 0 0 0 0 0 0 0 0 0 0 0 0 0 0 0 0 0 0 -0 0 0 0 0 0 0 0 -0 -0 -0 -0 -0 -0 -0 -0 -0 -0 -0 -0 -0 -0 -0
0 0 0 0 0 0 0 0 0 0 0 0 0 0 0 0 0 0 0 0 0 0 0 0 0 0 0 0 0 0 0 0 0 0 0 0 0 0 -0 -0 -0 -0 -0 -0 -0 -0 -0 -0 0 -0 -0 0 0 0
0 0 0 0 0 0 0 0 0 0 0 0 0 0 0 0 0 0 0 0 0 0 0 0 0 0 0 0 0 0 0 0 0 0 0 0 0 0 0 -0 -0 -0 -0 -0 -0 -0 -0 -0 -0 -0 0 0 0 0
0 0 0 0 0 0 0 0 0 0 0 0 0 0 0 0 0 0 0 0 0 0 0 0 0 0 0 0 0 0 0 0 0 0 0 0 0 0 0 0 0 0 0 0 0 0 0 0 0 0 0 0 0 0
0 0 0 0 0 0 0 0 0 0 0 0 0 0 0 0 0 0 0 0 0 0 0 0 0 0 0 0 0 0 0 0 0 0 0 0 0 0 0 0 0 0 0 0 0 0 0 0 0 0 0 0 0 0
0 0 0 0 0 0 0 0 0 0 0 0 0 0 0 0 0 0 0 0 0 0 0 0 0 0 0 0 0 0 0 0 0 0 0 0 0 0 0 0 0 0 0 0 0 0 0 0 0 0 0 0 0 0
0 0 0 0 0 0 0 0 0 0 0 0 0 0 0 0 0 0 0 0 0 0 0 0 0 0 0 0 0 0 0 0 0 0 0 0 0 0 0 0 0 0 0 0 0 0 0 0 0 0 0 0 0 0
0 0 0 0 0 0 0 0 0 0 0 0 0 0 0 0 0 0 0 0 0 0 0 0 0 0 0 0 0 0 0 0 0 0 0 0 0 0 0 0 0 0 0 0 0 0 0 0 0 -0 0 0 0 0
0 0 0 0 0 0 0 0 0 0 0 0 0 0 0 0 0 0 0 0 0 0 0 0 0 0 0 0 0 0 0 0 0 0 0 0 0 0 0 0 0 0 0 0 -0 -0 -0 0 0 0 0 0 0 0
0 0 0 0 0 0 0 0 0 0 0 0 0 0 0 0 0 0 0 0 0 0 0 0 0 0 0 0 0 0 0 0 0 0 0 0 0 0 0 0 0 -0 -0 -0 -0 -0 0 0 0 0 0 0 0 0
0 0 0 0 0 0 0 0 0 0 0 0 0 0 0 0 0 0 0 0 0 0 0 0 0 0 0 0 0 0 0 0 0 0 -0 0 -0 -0 -0 -0 0 0 0 0 0 0 0 0 0 0 0 0 0 0
0 0 0 0 0 0 0 0 0 0 0 0 0 0 0 0 0 0 0 0 0 0 0 0 0 0 0 0 0 0 0 0 0 0 0 0 0 -0 -0 0 0 0 0 0 0 0 0 0 0 0 0 0 0 0
0 0 0 0 0 0 0 0 0 0 0 0 0 0 0 0 0 0 0 0 0 0 0 0 0 0 0 0 0 0 0 0 0 0 0 -0 -0 -0 0 0 0 0 0 0 0 0 0 0 0 0 0 0 0 0
0 0 0 0 0 0 0 0 0 0 0 0 0 0 0 0 0 0 0 0 0 0 0 0 0 0 0 0 0 0 0 0 0 0 0 0 0 0 0 0 0 0 0 0 0 -0 -0 -0 -0 0 0 0 0 0
0 0 0 0 0 0 0 0 0 0 0 0 0 0 0 0 0 0 0 0 0 0 0 0 0 0 0 0 0 0 0 0 0 0 0 0 0 0 0 0 0 0 0 0 0 0 0 0 0 0 0 0 0 0
0 0 0 0 0 0 0 0 0 0 0 0 0 0 0 0 0 0 0 0 0 0 0 0 0 0 0 0 0 0 0 0 0 0 0 0 0 0 0 0 0 0 0 0 0 0 0 0 0 0 0 0 0 0
0 0 0 0 0 0 0 0 0 0 0 0 0 0 0 0 0 0 0 0 0 0 0 0 0 0 0 0 0 0 0 0 0 0 0 0 0 0 0 0 0 0 0 0 0 0 0 0 0 0 0 0 0 0
0 0 0 0 0 0 0 0 0 0 0 0 0 0 0 0 0 0 0 0 0 0 0 0 0 0 0 0 0 0 0 0 0 0 0 0 0 0 0 0 0 0 0 0 0 0 0 0 0 0 0 0 0 0
Wind_Speed_500mb
9 6 6 7 10 15 13 12 12 11 14 21 34 23 25 20 12 39 44 72 69 26 27 37 29 20 32 43 12 15 15 9 3 8 9 7 6 12 9 13 22 19 18 13 8 15 28 20 18 17 9 9 2 3
18 8 9 9 9 14 14 10 10 10 14 17 19 32 33 28 5 32 40 63 61 36 17 21 26 28 36 40 41 48 14 18 16 7 4 7 4 5 8 12 4 14 12 13 22 14 7 50 17 40 15 8 2 2
23 17 10 10 10 8 11 10 11 10 14 16 18 13 21 48 22 28 38 60 52 17 10 12 18 27 33 51 42 22 20 31 17 17 12 5 7 9 10 9 7 8 7 7 7 7 13 38 42 32 31 21 8 5
28 23 13 10 12 8 12 13 15 11 12 14 17 19 9 23 24 22 43 55 40 18 7 5 11 24 32 47 71 69 31 40 29 21 7 5 5 11 7 4 7 6 26 12 6 6 7 34 44 42 44 40 40 35
25 25 19 14 15 13 14 18 19 12 9 11 15 23 1 9 18 17 33 40 37 10 8 8 7 7 35 47 63 71 59 52 31 10 3 5 7 8 1 2 7 15 12 16 15 28 15 16 43 46 43 44 46 41
29 25 23 19 17 15 11 17 23 10 6 7 13 18 9 17 30 7 9 22 47 25 7 3 2 21 20 33 53 55 62 50 26 11 6 5 7 2 7 6 8 35 27 22 7 18 45 19 22 19 17 10 11 18
34 31 27 24 21 18 14 14 16 12 7 6 8 13 15 16 3 7 4 20 36 23 8 3 1 8 14 17 30 35 29 16 14 11 5 6 5 5 3 2 7 26 34 25 20 18 16 22 10 10 15 16 23 36
37 37 35 31 27 25 22 19 19 15 12 8 9 8 8 11 11 11 14 28 31 11 9 5 1 3 16 12 8 7 8 10 14 8 7 4 8 5 4 23 27 22 25 28 28 24 22 22 30 35 35 39 44 48
43 40 41 41 33 31 30 27 24 20 14 10 12 14 6 7 6 7 12 19 15 11 12 4 6 3 7 9 7 5 5 7 6 4 4 3 3 8 3 5 27 16 11 10 13 18 27 34 34 34 39 42 49 52
50 45 44 47 42 37 37 33 29 23 16 12 12 7 7 5 7 9 7 9 7 4 7 6 4 4 4 2 4 2 10 3 4 6 7 5 5 16 18 16 26 30 33 35 34 33 30 33 28 26 29 32 37 43
54 50 47 50 49 42 41 41 34 28 20 12 8 6 7 7 5 3 1 8 7 5 6 7 4 6 5 3 4 12 4 1 4 4 3 1 5 6 13 10 12 6 2 4 9 13 17 24 28 28 25 27 31 36
58 54 51 54 53 47 43 49 44 37 18 14 9 8 5 5 5 8 3 5 3 5 5 9 8 7 6 6 7 9 6 5 5 3 3 3 7 4 15 27 25 23 22 19 14 8 7 9 13 17 19 22 25 29
59 57 54 56 51 52 52 59 51 37 27 17 10 8 3 2 6 11 10 4 5 12 17 13 7 7 7 8 12 4 6 3 3 3 6 8 7 9 20 25 28 29 26 19 13 9 8 10 14 18 20 24 28 31
61 57 53 56 50 53 66 70 57 46 23 11 13 3 7 4 8 8 8 7 9 16 36 28 12 5 6 7 3 9 2 2 4 3 8 3 23 19 25 26 26 28 27 24 22 23 26 27 28 28 29 29 30 29
63 57 52 57 50 61 77 71 59 51 16 12 12 9 11 7 3 8 11 15 13 50 30 19 15 9 6 8 7 7 5 4 7 7 5 22 25 20 16 15 18 24 31 31 30 32 34 38 40 36 34 35 35 34
61 52 59 63 67 73 75 68 59 41 11 14 9 10 9 7 7 10 18 15 42 45 21 14 7 7 3 7 7 12 12 11 5 6 17 31 10 7 9 16 25 34 41 42 39 38 37 41 47 47 44 42 42 42
66 67 69 71 77 81 80 65 36 17 16 13 9 26 32 8 17 23 29 34 57 35 6 7 9 9 8 5 5 8 8 5 17 25 19 6 4 12 24 31 35 40 45 47 52 51 49 46 49 52 50 43 46 44
80 77 70 78 78 94 86 42 32 23 13 14 10 21 45 13 30 31 30 60 39 20 22 9 21 7 10 13 6 7 21 15 14 7 7 12 26 32 35 39 41 44 50 53 55 56 54 53 55 57 56 52 51 48
83 82 73 83 82 58 27 29 24 15 8 19 23 33 27 18 22 34 43 75 29 22 24 13 7 7 7 9 9 20 23 16 10 13 25 30 33 35 38 43 47 46 44 41 39 38 38 38 41 43 44 46 50 47
82 81 71 82 76 23 17 14 38 18 11 23 27 31 22 16 28 34 49 58 33 17 5 5 8 6 10 15 20 18 6 7 17 27 31 22 22 21 21 24 23 23 23 22 24 28 29 25 26 30 32 36 42 43
83 73 76 86 55 16 12 16 12 13 27 15 36 27 18 29 24 19 25 40 13 11 6 11 14 24 19 14 8 4 6 12 14 13 14 19 21 20 16 14 16 18 21 23 28 24 25 30 32 34 37 37 41 43
60 93 58 73 18 14 10 10 21 23 13 24 28 16 18 8 14 18 33 9 12 9 13 16 28 22 17 13 8 4 6 6 7 12 16 22 25 21 15 21 24 21 21 25 27 28 26 29 32 34 37 39 41 43
83 71 34 16 11 9 8 22 10 7 9 10 14 9 5 6 14 35 9 9 6 15 22 26 26 21 18 17 13 11 7 3 6 11 13 13 15 19 23 22 23 28 28 26 28 28 37 41 42 43 43 43 46 46
68 37 14 13 12 8 14 7 9 12 11 5 6 10 6 7 20 4 6 6 6 14 22 24 26 31 28 21 15 10 5 2 4 12 16 19 19 19 20 22 24 27 32 34 35 44 48 46 45 44 45 48 48 50
18 10 20 10 11 12 9 7 6 5 7 6 8 6 7 15 6 5 6 4 14 18 19 22 33 34 31 22 12 5 4 7 7 6 9 13 16 19 22 25 27 33 35 42 45 48 49 50 50 50 48 47 47 49
11 5 7 9 7 10 12 12 12 11 8 6 7 9 10 5 6 8 4 6 12 15 19 22 29 32 27 19 15 10 9 9 11 10 13 19 25 32 38 43 45 39 39 40 45 49 50 50 51 51 51 50 45 49
11 7 7 12 25 29 13 12 10 7 8 10 9 9 7 8 7 4 7 11 12 16 19 20 22 22 23 21 18 17 18 19 21 21 21 19 22 29 33 38 41 41 41 41 43 46 51 53 53 51 50 48 45 46
11 5 16 11 13 10 12 8 8 7 8 16 16 7 7 8 6 6 8 14 18 19 21 23 24 22 19 18 19 19 22 22 21 19 24 24 27 31 31 31 33 37 39 38 38 38 40 43 47 50 50 51 50 43
9 20 10 11 11 13 12 9 5 8 14 10 8 7 8 14 15 20 23 23 23 26 29 30 28 24 23 22 19 19 21 22 22 25 30 33 34 37 37 40 41 43 45 45 41 41 41 41 41 41 42 43 42 41
15 30 8 11 13 14 16 18 18 17 22 35 35 74 70 60 48 37 35 33 31 32 32 31 30 27 28 24 24 25 26 29 31 31 31 33 35 35 37 38 39 41 42 42 44 42 37 38 38 36 37 36 35 35
23 14 13 14 11 37 61 76 84 84 84 91 75 84 67 51 74 72 58 43 35 28 26 27 26 24 24 24 22 19 26 25 24 23 21 23 26 29 31 32 35 37 38 39 40 41 42 41 42 43 43 41 39 38
24 12 8 13 12 26 34 58 62 63 55 53 42 35 29 19 18 27 57 45 41 40 32 23 22 21 22 24 25 25 24 24 24 23 23 25 27 29 30 30 31 32 34 35 36 36 36 37 37 38 39 40 41 41
36 45 39 32 15 10 11 20 25 22 29 18 22 30 28 15 15 19 26 47 46 43 39 25 20 17 12 17 16 16 14 15 17 18 19 21 23 26 29 28 29 30 30 31 32 32 31 33 34 34 35 35 36 37
Wind_Direction_500mb
229 211 250 314 305 298 304 316 344 340 332 356 16 13 5 342 240 209 191 203 195 186 178 194 195 165 176 185 170 157 130 187 155 152 178 192 168 195 146 164 170 166 161 189 166 215 258 159 133 186 199 199 79 99
239 239 229 239 318 285 275 302 332 325 320 343 9 24 11 1 265 217 203 191 184 175 162 185 205 199 186 192 197 173 202 159 170 134 171 123 147 185 140 180 251 190 203 174 193 208 102 175 203 202 193 196 172 351
278 242 232 247 249 284 240 262 295 318 316 332 356 345 17 12 7 195 199 187 186 131 124 211 245 239 217 209 206 192 216 186 197 187 152 158 176 161 169 206 118 233 182 193 138 190 203 202 216 217 225 211 200 250
288 250 241 244 253 228 218 242 269 318 313 326 349 341 334 25 23 153 171 181 173 156 161 162 230 220 236 224 209 212 229 200 188 171 141 155 162 202 190 141 184 170 149 153 287 263 222 222 215 221 227 239 253 257
268 271 237 239 258 230 225 231 250 292 299 319 343 354 29 64 70 112 174 177 173 173 144 159 149 356 226 226 213 211 214 196 174 150 131 162 141 149 54 114 214 193 161 185 218 185 206 196 216 229 234 242 253 260
263 261 236 242 249 239 234 229 233 243 263 299 340 5 358 166 131 64 115 189 206 198 112 149 82 37 121 170 188 186 189 175 171 122 118 140 150 211 174 188 252 199 193 207 196 210 216 214 187 198 210 206 233 223
263 251 238 235 230 231 227 222 211 198 232 265 317 353 19 204 218 303 121 119 151 140 127 113 2 24 56 90 122 126 137 120 111 119 100 131 136 109 101 194 253 202 201 200 218 220 212 225 239 227 246 240 247 264
254 251 236 223 226 218 216 210 206 207 217 251 294 328 347 138 131 81 114 158 153 135 138 131 55 52 25 38 71 69 100 91 49 95 92 73 103 68 218 234 180 176 192 207 222 236 260 277 273 271 269 272 275 274
249 246 240 224 221 220 214 208 208 215 221 250 291 299 271 223 211 194 138 117 156 204 134 99 147 138 27 46 38 68 78 76 56 81 68 356 97 212 251 291 229 233 225 232 250 248 256 262 273 278 277 276 277 278
247 243 238 229 220 219 213 209 206 209 216 237 272 221 202 202 194 181 181 184 163 84 76 87 114 121 82 58 76 134 38 63 77 29 358 37 277 291 301 284 259 260 256 252 258 271 276 278 284 284 280 279 279 282
245 239 237 228 221 215 215 206 205 202 199 210 210 232 184 185 203 201 87 41 360 57 53 105 121 124 74 99 105 21 98 35 91 48 57 13 271 241 1 67 73 78 125 188 232 260 281 288 296 299 302 297 290 288
243 239 234 227 220 217 207 203 201 196 185 187 174 191 188 162 99 82 360 344 27 181 131 123 133 118 108 80 80 21 82 27 82 23 84 249 250 21 79 89 85 78 72 69 63 48 3 328 323 325 330 326 320 314
241 238 232 224 216 218 210 199 196 192 181 167 178 164 156 324 71 163 198 232 213 181 173 157 129 120 103 86 77 98 91 105 194 179 221 227 202 108 103 93 76 62 51 42 27 10 350 339 331 328 330 332 338 340
238 236 231 216 219 212 195 191 186 179 173 179 160 212 162 254 246 183 179 166 152 160 151 137 110 99 90 68 61 76 30 231 101 229 233 208 153 135 111 86 62 41 28 18 0 347 344 340 330 320 315 319 322 331
228 231 227 210 203 190 183 182 180 179 187 174 153 205 194 178 114 173 159 138 134 150 142 115 78 80 39 89 43 105 51 272 228 228 225 160 137 115 80 43 18 358 344 340 332 324 315 308 304 307 311 303 303 306
221 223 221 206 187 184 181 175 175 182 197 182 176 119 131 129 165 196 183 151 150 152 113 73 89 71 76 125 135 208 157 217 221 219 156 152 120 78 13 348 337 328 322 321 317 311 302 297 296 295 290 289 289 283
213 211 213 200 183 181 182 169 166 179 199 187 215 212 170 149 172 175 173 163 160 155 147 130 117 174 115 111 204 199 207 213 171 135 134 150 297 317 318 314 316 312 309 307 304 302 299 296 292 290 290 286 284 282
209 207 209 197 180 177 173 174 173 185 185 191 166 191 188 157 154 158 164 169 163 185 157 180 129 148 172 168 222 215 209 155 158 198 235 302 314 315 309 303 299 297 297 296 296 298 300 298 292 288 286 286 282 280
211 202 202 194 181 165 162 167 173 176 157 166 181 166 171 177 174 172 168 172 170 163 148 147 115 171 204 199 170 156 162 172 192 262 298 313 309 300 294 292 292 291 292 295 298 302 305 309 308 301 293 288 284 284
211 201 197 192 192 172 153 144 177 163 168 170 157 148 139 146 158 166 167 166 158 149 145 178 200 191 145 150 148 147 182 299 308 306 307 305 303 315 311 304 303 302 301 299 301 307 309 312 312 317 317 311 302 294
193 188 194 197 195 184 141 145 121 126 134 139 144 138 110 130 129 148 161 161 173 191 217 200 154 147 149 159 169 207 275 303 307 311 320 320 339 342 340 330 327 324 319 316 314 316 317 320 324 324 321 321 314 311
173 175 164 182 181 144 106 116 124 120 106 134 133 118 116 127 138 151 149 177 210 195 182 157 163 168 179 182 184 219 284 283 310 317 318 319 323 331 343 337 331 328 323 317 318 325 333 331 328 327 324 322 318 316
163 164 151 132 119 97 107 128 94 82 119 165 126 103 103 119 148 143 167 197 201 200 179 161 156 161 176 176 180 187 182 210 277 289 303 315 317 323 327 333 328 322 323 325 322 325 331 331 327 325 324 322 321 320
157 154 129 115 101 110 132 71 94 101 103 148 122 105 129 128 152 176 161 131 157 172 175 171 173 173 173 170 173 181 191 129 360 322 326 330 340 346 349 349 341 331 326 324 323 322 323 325 325 324 323 322 322 322
115 148 119 85 122 117 104 114 108 118 111 166 120 131 161 154 134 158 126 93 138 136 148 155 169 172 166 159 151 138 37 18 8 338 327 333 348 349 348 355 355 341 340 331 330 331 332 331 331 331 332 332 328 327
99 123 117 130 145 123 160 132 169 142 127 105 76 121 154 148 116 99 65 90 128 127 133 142 141 145 141 136 125 112 70 54 55 57 36 20 11 10 5 2 0 359 352 342 335 332 332 331 329 329 328 331 332 330
117 133 107 99 124 122 96 80 103 105 113 144 159 155 145 125 96 80 88 79 114 125 133 131 135 133 124 112 94 72 54 51 59 77 60 47 34 21 13 7 2 357 351 346 342 338 334 333 332 333 331 331 333 332
55 99 142 171 95 77 114 110 123 134 136 139 133 70 82 57 86 70 80 109 126 131 132 130 133 128 117 107 96 89 78 74 75 102 70 62 49 36 26 17 8 3 2 2 356 351 345 340 337 336 334 333 333 336
36 10 65 52 75 55 39 24 63 66 119 120 96 89 91 66 76 110 107 124 132 132 120 116 116 117 115 106 95 84 78 74 70 63 53 40 32 26 20 15 10 8 5 4 4 358 354 350 345 339 337 335 334 338
7 4 80 54 53 42 23 34 62 73 98 107 100 105 90 81 87 102 108 110 110 104 101 102 105 114 107 108 91 72 61 50 39 35 29 19 11 10 8 6 7 6 2 360 359 2 4 0 358 353 350 348 343 340
356 14 70 66 83 88 83 80 81 83 88 94 105 105 109 105 72 60 61 68 78 91 100 93 88 85 85 78 70 75 63 53 42 26 8 4 1 357 356 359 360 359 359 357 356 357 358 1 2 3 4 2 359 356
355 40 111 101 117 135 95 82 78 89 88 87 86 87 87 74 70 43 24 39 53 57 58 68 72 70 67 56 46 40 32 23 16 8 2 3 360 355 355 355 354 356 356 357 359 359 357 357 358 360 2 4 4 4
68 72 89 101 114 105 126 99 103 74 61 57 50 51 54 69 78 29 27 27 32 33 33 42 52 47 93 46 38 32 24 20 12 6 6 6 359 354 352 356 357 355 355 356 357 358 1 5 6 6 7 6 5 5
Wind_Speed_850mb
9 6 6 7 10 15 13 12 12 11 14 21 34 23 25 20 12 39 44 72 69 26 27 37 29 20 32 43 12 15 15 9 3 8 9 7 6 12 9 13 22 19 18 13 8 15 28 20 18 17 9 9 2 3
18 8 9 9 9 14 14 10 10 10 14 17 19 32 33 28 5 32 40 63 61 36 17 21 26 28 36 40 41 48 14 18 16 7 4 7 4 5 8 12 4 14 12 13 22 14 7 50 17 40 15 8 2 2
23 17 10 10 10 8 11 10 11 10 14 16 18 13 21 48 22 28 38 60 52 17 10 12 18 27 33 51 42 22 20 31 17 17 12 5 7 9 10 9 7 8 7 7 7 7 13 38 42 32 31 21 8 5
28 23 13 10 12 8 12 13 15 11 12 14 17 19 9 23 24 22 43 55 40 18 7 5 11 24 32 47 71 69 31 40 29 21 7 5 5 11 7 4 7 6 26 12 6 6 7 34 44 42 44 40 40 35
25 25 19 14 15 13 14 18 19 12 9 11 15 23 1 9 18 17 33 40 37 10 8 8 7 7 35 47 63 71 59 52 31 10 3 5 7 8 1 2 7 15 12 16 15 28 15 16 43 46 43 44 46 41
29 25 23 19 17 15 11 17 23 10 6 7 13 18 9 17 30 7 9 22 47 25 7 3 2 21 20 33 53 55 62 50 26 11 6 5 7 2 7 6 8 35 27 22 7 18 45 19 22 19 17 10 11 18
34 31 27 24 21 18 14 14 16 12 7 6 8 13 15 16 3 7 4 20 36 23 8 3 1 8 14 17 30 35 29 16 14 11 5 6 5 5 3 2 7 26 34 25 20 18 16 22 10 10 15 16 23 36
37 37 35 31 27 25 22 19 19 15 12 8 9 8 8 11 11 11 14 28 31 11 9 5 1 3 16 12 8 7 8 10 14 8 7 4 8 5 4 23 27 22 25 28 28 24 22 22 30 35 35 39 44 48
43 40 41 41 33 31 30 27 24 20 14 10 12 14 6 7 6 7 12 19 15 11 12 4 6 3 7 9 7 5 5 7 6 4 4 3 3 8 3 5 27 16 11 10 13 18 27 34 34 34 39 42 49 52
50 45 44 47 42 37 37 33 29 23 16 12 12 7 7 5 7 9 7 9 7 4 7 6 4 4 4 2 4 2 10 3 4 6 7 5 5 16 18 16 26 30 33 35 34 33 30 33 28 26 29 32 37 43
54 50 47 50 49 42 41 41 34 28 20 12 8 6 7 7 5 3 1 8 7 5 6 7 4 6 5 3 4 12 4 1 4 4 3 1 5 6 13 10 12 6 2 4 9 13 17 24 28 28 25 27 31 36
58 54 51 54 53 47 43 49 44 37 18 14 9 8 5 5 5 8 3 5 3 5 5 9 8 7 6 6 7 9 6 5 5 3 3 3 7 4 15 27 25 23 22 19 14 8 7 9 13 17 19 22 25 29
59 57 54 56 51 52 52 59 51 37 27 17 10 8 3 2 6 11 10 4 5 12 17 13 7 7 7 8 12 4 6 3 3 3 6 8 7 9 20 25 28 29 26 19 13 9 8 10 14 18 20 24 28 31
61 57 53 56 50 53 66 70 57 46 23 11 13 3 7 4 8 8 8 7 9 16 36 28 12 5 6 7 3 9 2 2 4 3 8 3 23 19 25 26 26 28 27 24 22 23 26 27 28 28 29 29 30 29
63 57 52 57 50 61 77 71 59 51 16 12 12 9 11 7 3 8 11 15 13 50 30 19 15 9 6 8 7 7 5 4 7 7 5 22 25 20 16 15 18 24 31 31 30 32 34 38 40 36 34 35 35 34
61 52 59 63 67 73 75 68 59 41 11 14 9 10 9 7 7 10 18 15 42 45 21 14 7 7 3 7 7 12 12 11 5 6 17 31 10 7 9 16 25 34 41 42 39 38 37 41 47 47 44 42 42 42
66 67 69 71 77 81 80 65 36 17 16 13 9 26 32 8 17 23 29 34 57 35 6 7 9 9 8 5 5 8 8 5 17 25 19 6 4 12 24 31 35 40 45 47 52 51 49 46 49 52 50 43 46 44
80 77 70 78 78 94 86 42 32 23 13 14 10 21 45 13 30 31 30 60 39 20 22 9 21 7 10 13 6 7 21 15 14 7 7 12 26 32 35 39 41 44 50 53 55 56 54 53 55 57 56 52 51 48
83 82 73 83 82 58 27 29 24 15 8 19 23 33 27 18 22 34 43 75 29 22 24 13 7 7 7 9 9 20 23 16 10 13 25 30 33 35 38 43 47 46 44 41 39 38 38 38 41 43 44 46 50 47
82 81 71 82 76 23 17 14 38 18 11 23 27 31 22 16 28 34 49 58 33 17 5 5 8 6 10 15 20 18 6 7 17 27 31 22 22 21 21 24 23 23 23 22 24 28 29 25 26 30 32 36 42 43
83 73 76 86 55 16 12 16 12 13 27 15 36 27 18 29 24 19 25 40 13 11 6 11 14 24 19 14 8 4 6 12 14 13 14 19 21 20 16 14 16 18 21 23 28 24 25 30 32 34 37 37 41 43
60 93 58 73 18 14 10 10 21 23 13 24 28 16 18 8 14 18 33 9 12 9 13 16 28 22 17 13 8 4 6 6 7 12 16 22 25 21 15 21 24 21 21 25 27 28 26 29 32 34 37 39 41 43
83 71 34 16 11 9 8 22 10 7 9 10 14 9 5 6 14 35 9 9 6 15 22 26 26 21 18 17 13 11 7 3 6 11 13 13 15 19 23 22 23 28 28 26 28 28 37 41 42 43 43 43 46 46
68 37 14 13 12 8 14 7 9 12 11 5 6 10 6 7 20 4 6 6 6 14 22 24 26 31 28 21 15 10 5 2 4 12 16 19 19 19 20 22 24 27 32 34 35 44 48 46 45 44 45 48 48 50
18 10 20 10 11 12 9 7 6 5 7 6 8 6 7 15 6 5 6 4 14 18 19 22 33 34 31 22 12 5 4 7 7 6 9 13 16 19 22 25 27 33 35 42 45 48 49 50 50 50 48 47 47 49
11 5 7 9 7 10 12 12 12 11 8 6 7 9 10 5 6 8 4 6 12 15 19 22 29 32 27 19 15 10 9 9 11 10 13 19 25 32 38 43 45 39 39 40 45 49 50 50 51 51 51 50 45 49
11 7 7 12 25 29 13 12 10 7 8 10 9 9 7 8 7 4 7 11 12 16 19 20 22 22 23 21 18 17 18 19 21 21 21 19 22 29 33 38 41 41 41 41 43 46 51 53 53 51 50 48 45 46
11 5 16 11 13 10 12 8 8 7 8 16 16 7 7 8 6 6 8 14 18 19 21 23 24 22 19 18 19 19 22 22 21 19 24 24 27 31 31 31 33 37 39 38 38 38 40 43 47 50 50 51 50 43
9 20 10 11 11 13 12 9 5 8 14 10 8 7 8 14 15 20 23 23 23 26 29 30 28 24 23 22 19 19 21 22 22 25 30 33 34 37 37 40 41 43 45 45 41 41 41 41 41 41 42 43 42 41
15 30 8 11 13 14 16 18 18 17 22 35 35 74 70 60 48 37 35 33 31 32 32 31 30 27 28 24 24 25 26 29 31 31 31 33 35 35 37 38 39 41 42 42 44 42 37 38 38 36 37 36 35 35
23 14 13 14 11 37 61 76 84 84 84 91 75 84 67 51 74 72 58 43 35 28 26 27 26 24 24 24 22 19 26 25 24 23 21 23 26 29 31 32 35 37 38 39 40 41 42 41 42 43 43 41 39 38
24 12 8 13 12 26 34 58 62 63 55 53 42 35 29 19 18 27 57 45 41 40 32 23 22 21 22 24 25 25 24 24 24 23 23 25 27 29 30 30 31 32 34 35 36 36 36 37 37 38 39 40 41 41
36 45 39 32 15 10 11 20 25 22 29 18 22 30 28 15 15 19 26 47 46 43 39 25 20 17 12 17 16 16 14 15 17 18 19 21 23 26 29 28 29 30 30 31 32 32 31 33 34 34 35 35 36 37
Wind_Direction_850mb
229 211 250 314 305 298 304 316 344 340 332 356 16 13 5 342 240 209 191 203 195 186 178 194 195 165 176 185 170 157 130 187 155 152 178 192 168 195 146 164 170 166 161 189 166 215 258 159 133 186 199 199 79 99
239 239 229 239 318 285 275 302 332 325 320 343 9 24 11 1 265 217 203 191 184 175 162 185 205 199 186 192 197 173 202 159 170 134 171 123 147 185 140 180 251 190 203 174 193 208 102 175 203 202 193 196 172 351
278 242 232 247 249 284 240 262 295 318 316 332 356 345 17 12 7 195 199 187 186 131 124 211 245 239 217 209 206 192 216 186 197 187 152 158 176 161 169 206 118 233 182 193 138 190 203 202 216 217 225 211 200 250
288 250 241 244 253 228 218 242 269 318 313 326 349 341 334 25 23 153 171 181 173 156 161 162 230 220 236 224 209 212 229 200 188 171 141 155 162 202 190 141 184 170 149 153 287 263 222 222 215 221 227 239 253 257
268 271 237 239 258 230 225 231 250 292 299 319 343 354 29 64 70 112 174 177 173 173 144 159 149 356 226 226 213 211 214 196 174 150 131 162 141 149 54 114 214 193 161 185 218 185 206 196 216 229 234 242 253 260
263 261 236 242 249 239 234 229 233 243 263 299 340 5 358 166 131 64 115 189 206 198 112 149 82 37 121 170 188 186 189 175 171 122 118 140 150 211 174 188 252 199 193 207 196 210 216 214 187 198 210 206 233 223
263 251 238 235 230 231 227 222 211 198 232 265 317 353 19 204 218 303 121 119 151 140 127 113 2 24 56 90 122 126 137 120 111 119 100 131 136 109 101 194 253 202 201 200 218 220 212 225 239 227 246 240 247 264
254 251 236 223 226 218 216 210 206 207 217 251 294 328 347 138 131 81 114 158 153 135 138 131 55 52 25 38 71 69 100 91 49 95 92 73 103 68 218 234 180 176 192 207 222 236 260 277 273 271 269 272 275 274
249 246 240 224 221 220 214 208 208 215 221 250 291 299 271 223 211 194 138 117 156 204 134 99 147 138 27 46 38 68 78 76 56 81 68 356 97 212 251 291 229 233 225 232 250 248 256 262 273 278 277 276 277 278
247 243 238 229 220 219 213 209 206 209 216 237 272 221 202 202 194 181 181 184 163 84 76 87 114 121 82 58 76 134 38 63 77 29 358 37 277 291 301 284 259 260 256 252 258 271 276 278 284 284 280 279 279 282
245 239 237 228 221 215 215 206 205 202 199 210 210 232 184 185 203 201 87 41 360 57 53 105 121 124 74 99 105 21 98 35 91 48 57 13 271 241 1 67 73 78 125 188 232 260 281 288 296 299 302 297 290 288
243 239 234 227 220 217 207 203 201 196 185 187 174 191 188 162 99 82 360 344 27 181 131 123 133 118 108 80 80 21 82 27 82 23 84 249 250 21 79 89 85 78 72 69 63 48 3 328 323 325 330 326 320 314
241 238 232 224 216 218 210 199 196 192 181 167 178 164 156 324 71 163 198 232 213 181 173 157 129 120 103 86 77 98 91 105 194 179 221 227 202 108 103 93 76 62 51 42 27 10 350 339 331 328 330 332 338 340
238 236 231 216 219 212 195 191 186 179 173 179 160 212 162 254 246 183 179 166 152 160 151 137 110 99 90 68 61 76 30 231 101 229 233 208 153 135 111 86 62 41 28 18 0 347 344 340 330 320 315 319 322 331
228 231 227 210 203 190 183 182 180 179 187 174 153 205 194 178 114 173 159 138 134 150 142 115 78 80 39 89 43 105 51 272 228 228 225 160 137 115 80 43 18 358 344 340 332 324 315 308 304 307 311 303 303 306
221 223 221 206 187 184 181 175 175 182 197 182 176 119 131 129 165 196 183 151 150 152 113 73 89 71 76 125 135 208 157 217 221 219 156 152 120 78 13 348 337 328 322 321 317 311 302 297 296 295 290 289 289 283
213 211 213 200 183 181 182 169 166 179 199 187 215 212 170 149 172 175 173 163 160 155 147 130 117 174 115 111 204 199 207 213 171 135 134 150 297 317 318 314 316 312 309 307 304 302 299 296 292 290 290 286 284 282
209 207 209 197 180 177 173 174 173 185 185 191 166 191 188 157 154 158 164 169 163 185 157 180 129 148 172 168 222 215 209 155 158 198 235 302 314 315 309 303 299 297 297 296 296 298 300 298 292 288 286 286 282 280
211 202 202 194 181 165 162 167 173 176 157 166 181 166 171 177 174 172 168 172 170 163 148 147 115 171 204 199 170 156 162 172 192 262 298 313 309 300 294 292 292 291 292 295 298 302 305 309 308 301 293 288 284 284
211 201 197 192 192 172 153 144 177 163 168 170 157 148 139 146 158 166 167 166 158 149 145 178 200 191 145 150 148 147 182 299 308 306 307 305 303 315 311 304 303 302 301 299 301 307 309 312 312 317 317 311 302 294
193 188 194 197 195 184 141 145 121 126 134 139 144 138 110 130 129 148 161 161 173 191 217 200 154 147 149 159 169 207 275 303 307 311 320 320 339 342 340 330 327 324 319 316 314 316 317 320 324 324 321 321 314 311
173 175 164 182 181 144 106 116 124 120 106 134 133 118 116 127 138 151 149 177 210 195 182 157 163 168 179 182 184 219 284 283 310 317 318 319 323 331 343 337 331 328 323 317 318 325 333 331 328 327 324 322 318 316
163 164 151 132 119 97 107 128 94 82 119 165 126 103 103 119 148 143 167 197 201 200 179 161 156 161 176 176 180 187 182 210 277 289 303 315 317 323 327 333 328 322 323 325 322 325 331 331 327 325 324 322 321 320
157 154 129 115 101 110 132 71 94 101 103 148 122 105 129 128 152 176 161 131 157 172 175 171 173 173 173 170 173 181 191 129 360 322 326 330 340 346 349 349 341 331 326 324 323 322 323 325 325 324 323 322 322 322
115 148 119 85 122 117 104 114 108 118 111 166 120 131 161 154 134 158 126 93 138 136 148 155 169 172 166 159 151 138 37 18 8 338 327 333 348 349 348 355 355 341 340 331 330 331 332 331 331 331 332 332 328 327
99 123 117 130 145 123 160 132 169 142 127 105 76 121 154 148 116 99 65 90 128 127 133 142 141 145 141 136 125 112 70 54 55 57 36 20 11 10 5 2 0 359 352 342 335 332 332 331 329 329 328 331 332 330
117 133 107 99 124 122 96 80 103 105 113 144 159 155 145 125 96 80 88 79 114 125 133 131 135 133 124 112 94 72 54 51 59 77 60 47 34 21 13 7 2 357 351 346 342 338 334 333 332 333 331 331 333 332
55 99 142 171 95 77 114 110 123 134 136 139 133 70 82 57 86 70 80 109 126 131 132 130 133 128 117 107 96 89 78 74 75 102 70 62 49 36 26 17 8 3 2 2 356 351 345 340 337 336 334 333 333 336
36 10 65 52 75 55 39 24 63 66 119 120 96 89 91 66 76 110 107 124 132 132 120 116 116 117 115 106 95 84 78 74 70 63 53 40 32 26 20 15 10 8 5 4 4 358 354 350 345 339 337 335 334 338
7 4 80 54 53 42 23 34 62 73 98 107 100 105 90 81 87 102 108 110 110 104 101 102 105 114 107 108 91 72 61 50 39 35 29 19 11 10 8 6 7 6 2 360 359 2 4 0 358 353 350 348 343 340
356 14 70 66 83 88 83 80 81 83 88 94 105 105 109 105 72 60 61 68 78 91 100 93 88 85 85 78 70 75 63 53 42 26 8 4 1 357 356 359 360 359 359 357 356 357 358 1 2 3 4 2 359 356
355 40 111 101 117 135 95 82 78 89 88 87 86 87 87 74 70 43 24 39 53 57 58 68 72 70 67 56 46 40 32 23 16 8 2 3 360 355 355 355 354 356 356 357 359 359 357 357 358 360 2 4 4 4
68 72 89 101 114 105 126 99 103 74 61 57 50 51 54 69 78 29 27 27 32 33 33 42 52 47 93 46 38 32 24 20 12 6 6 6 359 354 352 356 357 355 355 356 357 358 1 5 6 6 7 6 5 5